Time,TemperatureF,DewpointF,PressureIn,WindDirection,WindDirectionDegrees,WindSpeedMPH,WindSpeedGustMPH,Humidity,HourlyPrecipIn,Conditions,Clouds,dailyrainin,SolarRadiationWatts/m^2,SoftwareType,DateUTC
2013-03-12 00:00:00,41.1,36.3,30.25,NNW,338,2.0,6.0,83,0.00,,---,0.00,0.00,VWS V14.01,2013-03-12 07:00:00,
2013-03-12 00:05:00,41.1,36.3,30.25,NNW,331,3.0,4.0,83,0.00,,---,0.00,0.00,VWS V14.01,2013-03-12 07:05:00,
2013-03-12 00:10:00,41.1,36.3,30.25,North,5,1.0,4.0,83,0.00,,---,0.00,0.00,VWS V14.01,2013-03-12 07:10:00,
2013-03-12 00:15:00,40.8,36.0,30.25,NNW,346,3.0,5.0,83,0.00,,---,0.00,0.00,VWS V14.01,2013-03-12 07:15:00,
2013-03-12 00:20:00,40.6,35.5,30.24,NNW,329,4.0,6.0,82,0.00,,---,0.00,0.00,VWS V14.01,2013-03-12 07:20:00,
2013-03-12 00:25:00,40.6,35.8,30.24,North,5,2.0,6.0,83,0.00,,---,0.00,0.00,VWS V14.01,2013-03-12 07:25:00,
2013-03-12 00:30:00,40.6,35.8,30.24,NNW,338,3.0,6.0,83,0.00,,---,0.00,0.00,VWS V14.01,2013-03-12 07:30:00,
2013-03-12 00:35:00,40.6,35.8,30.24,NNE,26,10.0,10.0,83,0.00,,---,0.00,0.00,VWS V14.01,2013-03-12 07:35:00,
2013-03-12 00:40:00,40.5,35.8,30.24,NNE,30,3.0,10.0,83,0.00,,---,0.00,0.00,VWS V14.01,2013-03-12 07:40:00,
2013-03-12 00:45:00,40.4,35.7,30.24,NW,323,2.0,10.0,83,0.00,,---,0.00,0.00,VWS V14.01,2013-03-12 07:45:00,
2013-03-12 00:50:00,40.3,35.6,30.24,NNE,12,4.0,10.0,83,0.00,,---,0.00,0.00,VWS V14.01,2013-03-12 07:50:00,
2013-03-12 00:55:00,40.2,35.8,30.24,North,11,3.0,10.0,84,0.00,,---,0.00,0.00,VWS V14.01,2013-03-12 07:55:00,
2013-03-12 01:00:00,40.3,35.9,30.24,NNW,327,5.0,11.0,84,0.00,,---,0.00,0.00,VWS V14.01,2013-03-12 08:00:00,
2013-03-12 01:05:00,40.2,35.8,30.24,NNE,17,5.0,8.0,84,0.00,,---,0.00,0.00,VWS V14.01,2013-03-12 08:05:00,
2013-03-12 01:10:00,40.2,35.8,30.24,NNE,24,4.0,8.0,84,0.00,,---,0.00,0.00,VWS V14.01,2013-03-12 08:10:00,
2013-03-12 01:15:00,40.1,35.7,30.23,NE,37,4.0,8.0,84,0.00,,---,0.00,0.00,VWS V14.01,2013-03-12 08:15:00,
2013-03-12 01:20:00,40.1,36.0,30.23,North,360,6.0,10.0,85,0.00,,---,0.00,0.00,VWS V14.01,2013-03-12 08:20:00,
2013-03-12 01:25:00,40.2,36.1,30.22,NNE,30,4.0,10.0,85,0.00,,---,0.00,0.00,VWS V14.01,2013-03-12 08:25:00,
2013-03-12 01:30:00,40.3,36.2,30.23,NNE,25,8.0,12.0,85,0.00,,---,0.00,0.00,VWS V14.01,2013-03-12 08:30:00,
2013-03-12 01:35:00,40.3,36.2,30.22,North,350,6.0,13.0,85,0.00,,---,0.00,0.00,VWS V14.01,2013-03-12 08:35:00,
2013-03-12 01:40:00,40.4,36.3,30.22,NNW,344,13.0,13.0,85,0.00,,---,0.00,0.00,VWS V14.01,2013-03-12 08:40:00,
2013-03-12 01:45:00,40.5,36.3,30.22,North,5,5.0,13.0,85,0.00,,---,0.00,0.00,VWS V14.01,2013-03-12 08:45:00,
2013-03-12 01:50:00,40.5,36.3,30.22,North,5,9.0,13.0,85,0.00,,---,0.00,0.00,VWS V14.01,2013-03-12 08:50:00,
2013-03-12 01:55:00,40.6,36.5,30.21,North,11,9.0,13.0,85,0.00,,---,0.00,0.00,VWS V14.01,2013-03-12 08:55:00,
2013-03-12 02:00:00,40.6,36.5,30.21,NNW,331,10.0,13.0,85,0.00,,---,0.00,0.00,VWS V14.01,2013-03-12 09:00:00,
2013-03-12 02:05:00,40.7,36.5,30.21,NE,43,6.0,12.0,85,0.00,,---,0.00,0.00,VWS V14.01,2013-03-12 09:05:00,
2013-03-12 02:10:00,40.8,36.7,30.21,North,5,9.0,13.0,85,0.00,,---,0.00,0.00,VWS V14.01,2013-03-12 09:10:00,
2013-03-12 02:15:00,41.0,36.5,30.21,NNE,26,7.0,13.0,84,0.00,,---,0.00,0.00,VWS V14.01,2013-03-12 09:15:00,
2013-03-12 02:20:00,41.0,36.5,30.20,NW,326,6.0,13.0,84,0.00,,---,0.00,0.00,VWS V14.01,2013-03-12 09:20:00,
2013-03-12 02:25:00,41.2,36.7,30.21,NE,38,9.0,15.0,84,0.00,,---,0.00,0.00,VWS V14.01,2013-03-12 09:25:00,
2013-03-12 02:30:00,41.5,37.0,30.20,NE,53,5.0,16.0,84,0.00,,---,0.00,0.00,VWS V14.01,2013-03-12 09:30:00,
2013-03-12 02:35:00,41.5,36.7,30.20,NNE,26,9.0,14.0,83,0.00,,---,0.00,0.00,VWS V14.01,2013-03-12 09:35:00,
2013-03-12 02:40:00,41.5,36.7,30.20,North,355,5.0,14.0,83,0.00,,---,0.00,0.00,VWS V14.01,2013-03-12 09:40:00,
2013-03-12 02:45:00,41.3,36.2,30.20,NNE,29,9.0,14.0,82,0.00,,---,0.00,0.00,VWS V14.01,2013-03-12 09:45:00,
2013-03-12 02:50:00,40.8,36.0,30.20,North,360,7.0,14.0,83,0.00,,---,0.00,0.00,VWS V14.01,2013-03-12 09:50:00,
2013-03-12 02:55:00,40.4,36.0,30.20,North,351,5.0,14.0,84,0.00,,---,0.00,0.00,VWS V14.01,2013-03-12 09:55:00,
2013-03-12 03:00:00,40.0,35.6,30.19,NNE,33,6.0,14.0,84,0.00,,---,0.00,0.00,VWS V14.01,2013-03-12 10:00:00,
2013-03-12 03:05:00,39.7,35.6,30.19,NNE,14,4.0,10.0,85,0.00,,---,0.00,0.00,VWS V14.01,2013-03-12 10:05:00,
2013-03-12 03:10:00,39.7,35.6,30.19,North,5,8.0,12.0,85,0.00,,---,0.00,0.00,VWS V14.01,2013-03-12 10:10:00,
2013-03-12 03:15:00,39.8,35.7,30.19,North,5,7.0,14.0,85,0.00,,---,0.00,0.00,VWS V14.01,2013-03-12 10:15:00,
2013-03-12 03:20:00,39.7,35.6,30.19,North,5,8.0,14.0,85,0.00,,---,0.00,0.00,VWS V14.01,2013-03-12 10:20:00,
2013-03-12 03:25:00,39.5,35.4,30.19,NNE,14,8.0,14.0,85,0.00,,---,0.00,0.00,VWS V14.01,2013-03-12 10:25:00,
2013-03-12 03:30:00,39.5,35.4,30.18,NE,38,9.0,14.0,85,0.00,,---,0.00,0.00,VWS V14.01,2013-03-12 10:30:00,
2013-03-12 03:35:00,39.8,35.7,30.19,NNE,27,6.0,15.0,85,0.00,,---,0.00,0.00,VWS V14.01,2013-03-12 10:35:00,
2013-03-12 03:40:00,40.1,36.0,30.19,NE,46,5.0,15.0,85,0.00,,---,0.00,0.00,VWS V14.01,2013-03-12 10:40:00,
2013-03-12 03:45:00,40.2,35.8,30.19,NNE,26,6.0,15.0,84,0.00,,---,0.00,0.00,VWS V14.01,2013-03-12 10:45:00,
2013-03-12 03:50:00,40.2,35.8,30.18,NE,38,4.0,15.0,84,0.00,,---,0.00,0.00,VWS V14.01,2013-03-12 10:50:00,
2013-03-12 03:55:00,40.2,35.8,30.18,ENE,71,4.0,15.0,84,0.00,,---,0.00,0.00,VWS V14.01,2013-03-12 10:55:00,
2013-03-12 04:00:00,40.1,35.7,30.18,ENE,59,4.0,15.0,84,0.00,,---,0.00,0.00,VWS V14.01,2013-03-12 11:00:00,
2013-03-12 04:05:00,40.1,35.7,30.18,NNE,33,10.0,10.0,84,0.00,,---,0.00,0.00,VWS V14.01,2013-03-12 11:05:00,
2013-03-12 04:10:00,40.1,35.7,30.18,NE,38,7.0,10.0,84,0.00,,---,0.00,0.00,VWS V14.01,2013-03-12 11:10:00,
2013-03-12 04:15:00,40.1,35.4,30.17,NE,36,8.0,13.0,83,0.00,,---,0.00,0.00,VWS V14.01,2013-03-12 11:15:00,
2013-03-12 04:20:00,40.1,35.7,30.17,NE,55,6.0,13.0,84,0.00,,---,0.00,0.00,VWS V14.01,2013-03-12 11:20:00,
2013-03-12 04:25:00,40.2,35.5,30.17,NNE,13,9.0,15.0,83,0.00,,---,0.00,0.00,VWS V14.01,2013-03-12 11:25:00,
2013-03-12 04:30:00,40.1,35.4,30.17,NNE,19,8.0,15.0,83,0.00,,---,0.00,0.00,VWS V14.01,2013-03-12 11:30:00,
2013-03-12 04:35:00,40.0,35.3,30.17,NE,40,9.0,17.0,83,0.00,,---,0.00,0.00,VWS V14.01,2013-03-12 11:35:00,
2013-03-12 04:40:00,39.8,35.1,30.17,North,355,8.0,17.0,83,0.00,,---,0.00,0.00,VWS V14.01,2013-03-12 11:40:00,
2013-03-12 04:45:00,39.6,35.2,30.17,NNE,32,8.0,18.0,84,0.00,,---,0.00,0.00,VWS V14.01,2013-03-12 11:45:00,
2013-03-12 04:50:00,39.5,35.1,30.17,North,5,12.0,18.0,84,0.00,,---,0.00,0.00,VWS V14.01,2013-03-12 11:50:00,
2013-03-12 04:55:00,39.5,35.4,30.17,ENE,72,11.0,19.0,85,0.00,,---,0.00,0.00,VWS V14.01,2013-03-12 11:55:00,
2013-03-12 05:00:00,39.5,35.1,30.17,NNE,33,10.0,19.0,84,0.00,,---,0.00,0.00,VWS V14.01,2013-03-12 12:00:00,
2013-03-12 05:05:00,39.4,35.0,30.18,East,99,3.0,9.0,84,0.00,,---,0.00,0.00,VWS V14.01,2013-03-12 12:05:00,
2013-03-12 05:10:00,39.3,34.9,30.18,ENE,74,3.0,9.0,84,0.00,,---,0.00,0.00,VWS V14.01,2013-03-12 12:10:00,
2013-03-12 05:15:00,39.1,34.7,30.18,SE,135,1.0,9.0,84,0.00,,---,0.00,0.00,VWS V14.01,2013-03-12 12:15:00,
2013-03-12 05:20:00,38.9,34.5,30.18,WNW,285,2.0,9.0,84,0.00,,---,0.00,0.00,VWS V14.01,2013-03-12 12:20:00,
2013-03-12 05:25:00,38.6,34.2,30.18,NNW,348,3.0,9.0,84,0.00,,---,0.00,0.00,VWS V14.01,2013-03-12 12:25:00,
2013-03-12 05:30:00,38.4,34.6,30.18,North,350,4.0,9.0,86,0.00,,---,0.00,0.00,VWS V14.01,2013-03-12 12:30:00,
2013-03-12 05:35:00,38.3,34.8,30.18,NNE,24,6.0,7.0,87,0.00,,---,0.00,0.00,VWS V14.01,2013-03-12 12:35:00,
2013-03-12 05:40:00,38.4,34.9,30.18,North,350,4.0,7.0,87,0.00,,---,0.00,0.00,VWS V14.01,2013-03-12 12:40:00,
2013-03-12 05:45:00,38.7,35.2,30.18,North,11,5.0,8.0,87,0.00,,---,0.00,0.00,VWS V14.01,2013-03-12 12:45:00,
2013-03-12 05:50:00,39.0,35.2,30.17,NE,37,4.0,8.0,86,0.00,,---,0.00,0.00,VWS V14.01,2013-03-12 12:50:00,
2013-03-12 05:55:00,39.2,35.1,30.18,NNW,331,2.0,8.0,85,0.00,,---,0.00,0.00,VWS V14.01,2013-03-12 12:55:00,
2013-03-12 06:00:00,39.0,34.6,30.17,North,9,7.0,8.0,84,0.00,,---,0.00,0.00,VWS V14.01,2013-03-12 13:00:00,
2013-03-12 06:05:00,38.4,34.0,30.16,NNE,19,5.0,14.0,84,0.00,,---,0.00,0.00,VWS V14.01,2013-03-12 13:05:00,
2013-03-12 06:10:00,37.6,33.8,30.16,NNE,22,5.0,15.0,86,0.00,,---,0.00,0.00,VWS V14.01,2013-03-12 13:10:00,
2013-03-12 06:15:00,37.1,33.6,30.16,NNE,30,12.0,15.0,87,0.00,,---,0.00,0.00,VWS V14.01,2013-03-12 13:15:00,
2013-03-12 06:20:00,36.9,33.7,30.16,North,10,6.0,15.0,88,0.00,,---,0.00,0.00,VWS V14.01,2013-03-12 13:20:00,
2013-03-12 06:25:00,36.6,33.4,30.16,NNE,22,8.0,15.0,88,0.00,,---,0.00,0.00,VWS V14.01,2013-03-12 13:25:00,
2013-03-12 06:30:00,36.5,33.6,30.16,NNE,19,9.0,15.0,89,0.00,,---,0.00,0.00,VWS V14.01,2013-03-12 13:30:00,
2013-03-12 06:35:00,36.5,33.6,30.16,ENE,67,11.0,12.0,89,0.00,,---,0.00,0.00,VWS V14.01,2013-03-12 13:35:00,
2013-03-12 06:40:00,36.4,33.5,30.16,North,5,9.0,13.0,89,0.00,,---,0.00,0.00,VWS V14.01,2013-03-12 13:40:00,
2013-03-12 06:45:00,36.5,33.6,30.16,NNE,12,7.0,14.0,89,0.00,,---,0.00,0.00,VWS V14.01,2013-03-12 13:45:00,
2013-03-12 06:49:00,36.5,33.8,30.16,North,9,8.0,14.0,90,0.00,,---,0.00,0.00,VWS V14.01,2013-03-12 13:49:00,
2013-03-12 06:54:00,36.7,34.0,30.16,NE,43,6.0,14.0,90,0.00,,---,0.00,0.00,VWS V14.01,2013-03-12 13:54:00,
2013-03-12 07:00:00,36.8,34.2,30.16,NNE,29,6.0,14.0,90,0.00,,---,0.00,0.00,VWS V14.01,2013-03-12 14:00:00,
2013-03-12 07:05:00,37.0,34.3,30.15,North,350,6.0,14.0,90,0.00,,---,0.00,0.00,VWS V14.01,2013-03-12 14:05:00,
2013-03-12 07:10:00,37.4,34.7,30.15,NNE,13,8.0,14.0,90,0.00,,---,0.00,0.00,VWS V14.01,2013-03-12 14:10:00,
2013-03-12 07:15:00,38.0,35.3,30.15,NNE,12,7.0,14.0,90,0.00,,---,0.00,0.00,VWS V14.01,2013-03-12 14:15:00,
2013-03-12 07:20:00,38.5,35.5,30.16,NNE,16,11.0,14.0,89,0.00,,---,0.00,0.00,VWS V14.01,2013-03-12 14:20:00,
2013-03-12 07:25:00,38.8,35.6,30.16,NNE,22,8.0,14.0,88,0.00,,---,0.00,0.00,VWS V14.01,2013-03-12 14:25:00,
2013-03-12 07:30:00,38.9,35.7,30.17,NNE,26,6.0,14.0,88,0.00,,---,0.00,5.00,VWS V14.01,2013-03-12 14:30:00,
2013-03-12 07:35:00,39.1,35.8,30.17,NNE,24,6.0,10.0,88,0.00,,---,0.00,9.00,VWS V14.01,2013-03-12 14:35:00,
2013-03-12 07:40:00,39.4,36.2,30.17,NNE,19,7.0,10.0,88,0.00,,---,0.00,14.00,VWS V14.01,2013-03-12 14:40:00,
2013-03-12 07:45:00,39.8,36.2,30.18,NNE,20,4.0,10.0,87,0.00,,---,0.00,19.00,VWS V14.01,2013-03-12 14:45:00,
2013-03-12 07:50:00,40.0,36.5,30.18,NNE,26,6.0,10.0,87,0.00,,---,0.00,25.00,VWS V14.01,2013-03-12 14:50:00,
2013-03-12 07:55:00,40.2,36.3,30.18,NE,49,6.0,10.0,86,0.00,,---,0.00,33.00,VWS V14.01,2013-03-12 14:55:00,
2013-03-12 08:00:00,40.4,36.5,30.18,NE,34,5.0,10.0,86,0.00,,---,0.00,47.00,VWS V14.01,2013-03-12 15:00:00,
2013-03-12 08:05:00,40.6,36.8,30.18,NE,52,5.0,10.0,86,0.00,,---,0.00,49.00,VWS V14.01,2013-03-12 15:05:00,
2013-03-12 08:10:00,40.8,36.9,30.17,NNE,28,5.0,10.0,86,0.00,,---,0.00,53.00,VWS V14.01,2013-03-12 15:10:00,
2013-03-12 08:15:00,40.9,37.0,30.17,North,10,6.0,10.0,86,0.00,,---,0.00,51.00,VWS V14.01,2013-03-12 15:15:00,
2013-03-12 08:20:00,41.0,37.1,30.17,NNE,20,4.0,10.0,86,0.00,,---,0.00,63.00,VWS V14.01,2013-03-12 15:20:00,
2013-03-12 08:25:00,41.1,36.9,30.17,NNW,346,4.0,12.0,85,0.00,,---,0.00,74.00,VWS V14.01,2013-03-12 15:25:00,
2013-03-12 08:30:00,41.1,36.9,30.17,North,11,6.0,12.0,85,0.00,,---,0.00,76.00,VWS V14.01,2013-03-12 15:30:00,
2013-03-12 08:35:00,41.1,36.9,30.17,North,355,6.0,9.0,85,0.00,,---,0.00,69.00,VWS V14.01,2013-03-12 15:35:00,
2013-03-12 08:40:00,41.0,36.8,30.17,NE,41,7.0,10.0,85,0.00,,---,0.00,65.00,VWS V14.01,2013-03-12 15:40:00,
2013-03-12 08:45:00,40.8,36.7,30.17,NNE,16,7.0,11.0,85,0.00,,---,0.00,81.00,VWS V14.01,2013-03-12 15:45:00,
2013-03-12 08:50:00,40.7,36.2,30.18,North,360,5.0,11.0,84,0.00,,---,0.00,79.00,VWS V14.01,2013-03-12 15:50:00,
2013-03-12 08:55:00,40.6,36.5,30.18,NNE,24,8.0,11.0,85,0.00,,---,0.00,97.00,VWS V14.01,2013-03-12 15:55:00,
2013-03-12 09:00:00,40.7,36.5,30.18,NNE,32,5.0,13.0,85,0.00,,---,0.00,134.00,VWS V14.01,2013-03-12 16:00:00,
2013-03-12 09:05:00,41.0,36.8,30.18,NE,38,6.0,11.0,85,0.00,,---,0.00,218.00,VWS V14.01,2013-03-12 16:05:00,
2013-03-12 09:10:00,41.3,37.1,30.18,NE,38,5.0,11.0,85,0.00,,---,0.00,237.00,VWS V14.01,2013-03-12 16:10:00,
2013-03-12 09:15:00,41.7,37.2,30.18,NNE,22,9.0,11.0,84,0.00,,---,0.00,156.00,VWS V14.01,2013-03-12 16:15:00,
2013-03-12 09:20:00,42.1,37.3,30.18,North,5,6.0,11.0,83,0.00,,---,0.00,167.00,VWS V14.01,2013-03-12 16:20:00,
2013-03-12 09:25:00,42.5,37.7,30.18,NE,42,4.0,11.0,83,0.00,,---,0.00,165.00,VWS V14.01,2013-03-12 16:25:00,
2013-03-12 09:30:00,42.9,37.8,30.18,NE,40,6.0,11.0,82,0.00,,---,0.00,149.00,VWS V14.01,2013-03-12 16:30:00,
2013-03-12 09:35:00,43.2,38.1,30.19,North,355,7.0,8.0,82,0.00,,---,0.00,174.00,VWS V14.01,2013-03-12 16:35:00,
2013-03-12 09:40:00,43.5,38.1,30.18,ENE,59,3.0,8.0,81,0.00,,---,0.00,167.00,VWS V14.01,2013-03-12 16:40:00,
2013-03-12 09:45:00,43.8,38.4,30.18,NE,53,4.0,8.0,81,0.00,,---,0.00,149.00,VWS V14.01,2013-03-12 16:45:00,
2013-03-12 09:50:00,44.1,38.3,30.18,NNE,26,1.0,8.0,80,0.00,,---,0.00,165.00,VWS V14.01,2013-03-12 16:50:00,
2013-03-12 09:55:00,44.4,38.6,30.18,NE,53,3.0,8.0,80,0.00,,---,0.00,179.00,VWS V14.01,2013-03-12 16:55:00,
2013-03-12 10:00:00,44.8,38.7,30.18,ENE,63,4.0,10.0,79,0.00,,---,0.00,179.00,VWS V14.01,2013-03-12 17:00:00,
2013-03-12 10:05:00,45.1,38.7,30.18,ENE,57,8.0,8.0,78,0.00,,---,0.00,190.00,VWS V14.01,2013-03-12 17:05:00,
2013-03-12 10:10:00,45.4,39.0,30.18,North,11,3.0,9.0,78,0.00,,---,0.00,190.00,VWS V14.01,2013-03-12 17:10:00,
2013-03-12 10:15:00,45.7,38.9,30.18,North,355,2.0,9.0,77,0.00,,---,0.00,190.00,VWS V14.01,2013-03-12 17:15:00,
2013-03-12 10:20:00,45.9,38.8,30.18,NNE,33,4.0,9.0,76,0.00,,---,0.00,202.00,VWS V14.01,2013-03-12 17:20:00,
2013-03-12 10:25:00,46.0,38.9,30.18,ENE,57,4.0,9.0,76,0.00,,---,0.00,204.00,VWS V14.01,2013-03-12 17:25:00,
2013-03-12 10:30:00,46.1,38.3,30.18,ENE,57,3.0,9.0,74,0.00,,---,0.00,169.00,VWS V14.01,2013-03-12 17:30:00,
2013-03-12 10:35:00,46.1,38.3,30.18,NE,51,4.0,9.0,74,0.00,,---,0.00,181.00,VWS V14.01,2013-03-12 17:35:00,
2013-03-12 10:40:00,46.2,38.7,30.19,North,355,4.0,9.0,75,0.00,,---,0.00,185.00,VWS V14.01,2013-03-12 17:40:00,
2013-03-12 10:45:00,46.3,38.5,30.19,NE,49,3.0,9.0,74,0.00,,---,0.00,199.00,VWS V14.01,2013-03-12 17:45:00,
2013-03-12 10:50:00,46.4,38.6,30.19,NNE,30,6.0,9.0,74,0.00,,---,0.00,260.00,VWS V14.01,2013-03-12 17:50:00,
2013-03-12 10:55:00,46.7,38.5,30.18,NNE,18,6.0,9.0,73,0.00,,---,0.00,279.00,VWS V14.01,2013-03-12 17:55:00,
2013-03-12 11:00:00,47.1,38.9,30.18,NNE,26,5.0,9.0,73,0.00,,---,0.00,258.00,VWS V14.01,2013-03-12 18:00:00,
2013-03-12 11:05:00,47.5,38.9,30.18,NNE,26,5.0,10.0,72,0.00,,---,0.00,285.00,VWS V14.01,2013-03-12 18:05:00,
2013-03-12 11:10:00,48.0,39.1,30.18,NE,46,3.0,10.0,71,0.00,,---,0.00,308.00,VWS V14.01,2013-03-12 18:10:00,
2013-03-12 11:15:00,48.6,39.3,30.17,NE,38,7.0,10.0,70,0.00,,---,0.00,350.00,VWS V14.01,2013-03-12 18:15:00,
2013-03-12 11:20:00,49.2,39.5,30.17,NNE,22,10.0,11.0,69,0.00,,---,0.00,418.00,VWS V14.01,2013-03-12 18:20:00,
2013-03-12 11:25:00,49.7,39.6,30.18,NE,36,8.0,11.0,68,0.00,,---,0.00,475.00,VWS V14.01,2013-03-12 18:25:00,
2013-03-12 11:30:00,50.1,39.2,30.17,NNE,32,4.0,11.0,66,0.00,,---,0.00,360.00,VWS V14.01,2013-03-12 18:30:00,
2013-03-12 11:35:00,50.3,39.4,30.17,NE,54,5.0,9.0,66,0.00,,---,0.00,251.00,VWS V14.01,2013-03-12 18:35:00,
2013-03-12 11:40:00,50.3,39.0,30.17,NNE,30,4.0,9.0,65,0.00,,---,0.00,262.00,VWS V14.01,2013-03-12 18:40:00,
2013-03-12 11:45:00,50.4,39.1,30.18,NE,46,4.0,9.0,65,0.00,,---,0.00,214.00,VWS V14.01,2013-03-12 18:45:00,
2013-03-12 11:50:00,50.5,39.2,30.18,NE,55,6.0,9.0,65,0.00,,---,0.00,264.00,VWS V14.01,2013-03-12 18:50:00,
2013-03-12 11:55:00,50.6,38.9,30.18,ENE,59,3.0,9.0,64,0.00,,---,0.00,250.00,VWS V14.01,2013-03-12 18:55:00,
2013-03-12 12:00:00,51.0,38.5,30.18,ENE,60,2.0,9.0,62,0.00,,---,0.00,271.00,VWS V14.01,2013-03-12 19:00:00,
2013-03-12 12:05:00,51.3,39.2,30.18,NNE,26,3.0,6.0,63,0.00,,---,0.00,255.00,VWS V14.01,2013-03-12 19:05:00,
2013-03-12 12:10:00,51.5,39.3,30.19,ESE,103,4.0,6.0,63,0.00,,---,0.00,257.00,VWS V14.01,2013-03-12 19:10:00,
2013-03-12 12:15:00,51.7,39.1,30.18,ENE,71,1.0,6.0,62,0.00,,---,0.00,281.00,VWS V14.01,2013-03-12 19:15:00,
2013-03-12 12:20:00,51.9,38.9,30.18,SE,145,2.0,6.0,61,0.00,,---,0.00,264.00,VWS V14.01,2013-03-12 19:20:00,
2013-03-12 12:25:00,52.2,38.8,30.18,SSE,164,2.0,6.0,60,0.00,,---,0.00,253.00,VWS V14.01,2013-03-12 19:25:00,
2013-03-12 12:30:00,52.3,38.8,30.18,SSE,150,3.0,6.0,60,0.00,,---,0.00,279.00,VWS V14.01,2013-03-12 19:30:00,
2013-03-12 12:35:00,52.4,38.5,30.18,SSE,149,1.0,4.0,59,0.00,,---,0.00,272.00,VWS V14.01,2013-03-12 19:35:00,
2013-03-12 12:40:00,52.5,38.2,30.18,SSE,150,1.0,4.0,58,0.00,,---,0.00,264.00,VWS V14.01,2013-03-12 19:40:00,
2013-03-12 12:45:00,52.6,37.8,30.18,SSE,150,0.0,4.0,57,0.00,,---,0.00,283.00,VWS V14.01,2013-03-12 19:45:00,
2013-03-12 12:50:00,52.8,38.5,30.18,SSE,150,0.0,4.0,58,0.00,,---,0.00,306.00,VWS V14.01,2013-03-12 19:50:00,
2013-03-12 12:55:00,53.0,38.2,30.18,South,172,0.0,4.0,57,0.00,,---,0.00,476.00,VWS V14.01,2013-03-12 19:55:00,
2013-03-12 13:00:00,53.3,38.0,30.17,South,178,0.0,4.0,56,0.00,,---,0.00,517.00,VWS V14.01,2013-03-12 20:00:00,
2013-03-12 13:05:00,53.5,38.2,30.17,South,185,0.0,1.0,56,0.00,,---,0.00,311.00,VWS V14.01,2013-03-12 20:05:00,
2013-03-12 13:10:00,53.8,39.4,30.17,SE,128,0.0,2.0,58,0.00,,---,0.00,348.00,VWS V14.01,2013-03-12 20:10:00,
2013-03-12 13:15:00,54.3,38.5,30.17,ESE,111,0.0,3.0,55,0.00,,---,0.00,362.00,VWS V14.01,2013-03-12 20:15:00,
2013-03-12 13:20:00,54.8,39.0,30.18,SSE,163,0.0,3.0,55,0.00,,---,0.00,336.00,VWS V14.01,2013-03-12 20:20:00,
2013-03-12 13:25:00,55.1,38.8,30.18,SSE,148,0.0,3.0,54,0.00,,---,0.00,373.00,VWS V14.01,2013-03-12 20:25:00,
2013-03-12 13:30:00,55.5,38.7,30.17,South,180,0.0,3.0,53,0.00,,---,0.00,345.00,VWS V14.01,2013-03-12 20:30:00,
2013-03-12 13:35:00,55.9,38.5,30.17,WSW,240,2.0,3.0,52,0.00,,---,0.00,338.00,VWS V14.01,2013-03-12 20:35:00,
2013-03-12 13:40:00,56.0,38.2,30.17,SSE,150,3.0,3.0,51,0.00,,---,0.00,309.00,VWS V14.01,2013-03-12 20:40:00,
2013-03-12 13:45:00,56.3,38.4,30.17,SE,145,2.0,4.0,51,0.00,,---,0.00,323.00,VWS V14.01,2013-03-12 20:45:00,
2013-03-12 13:50:00,56.6,38.2,30.17,SE,142,0.0,4.0,50,0.00,,---,0.00,329.00,VWS V14.01,2013-03-12 20:50:00,
2013-03-12 13:55:00,56.8,37.9,30.17,SSW,198,0.0,4.0,49,0.00,,---,0.00,334.00,VWS V14.01,2013-03-12 20:55:00,
2013-03-12 14:00:00,56.9,36.9,30.17,WSW,248,2.0,4.0,47,0.00,,---,0.00,287.00,VWS V14.01,2013-03-12 21:00:00,
2013-03-12 14:05:00,56.9,37.4,30.17,South,180,1.0,3.0,48,0.00,,---,0.00,295.00,VWS V14.01,2013-03-12 21:05:00,
2013-03-12 14:10:00,56.8,36.8,30.16,SW,236,0.0,4.0,47,0.00,,---,0.00,267.00,VWS V14.01,2013-03-12 21:10:00,
2013-03-12 14:15:00,56.9,38.0,30.16,SW,217,0.0,4.0,49,0.00,,---,0.00,369.00,VWS V14.01,2013-03-12 21:15:00,
2013-03-12 14:20:00,57.1,37.6,30.16,SSE,157,0.0,4.0,48,0.00,,---,0.00,459.00,VWS V14.01,2013-03-12 21:20:00,
2013-03-12 14:25:00,57.5,36.3,30.16,SSE,157,0.0,4.0,45,0.00,,---,0.00,592.00,VWS V14.01,2013-03-12 21:25:00,
2013-03-12 14:30:00,57.8,36.6,30.15,SSW,194,0.0,4.0,45,0.00,,---,0.00,606.00,VWS V14.01,2013-03-12 21:30:00,
2013-03-12 14:35:00,58.3,36.5,30.15,ENE,63,1.0,3.0,44,0.00,,---,0.00,631.00,VWS V14.01,2013-03-12 21:35:00,
2013-03-12 14:40:00,58.7,35.7,30.15,SW,221,2.0,3.0,42,0.00,,---,0.00,225.00,VWS V14.01,2013-03-12 21:40:00,
2013-03-12 14:45:00,58.7,35.1,30.14,South,180,0.0,4.0,41,0.00,,---,0.00,327.00,VWS V14.01,2013-03-12 21:45:00,
2013-03-12 14:50:00,59.1,34.2,30.14,SSW,200,0.0,4.0,39,0.00,,---,0.00,234.00,VWS V14.01,2013-03-12 21:50:00,
2013-03-12 14:55:00,59.3,34.4,30.15,SE,139,0.0,4.0,39,0.00,,---,0.00,190.00,VWS V14.01,2013-03-12 21:55:00,
2013-03-12 15:00:00,59.5,31.9,30.15,SSE,157,3.0,5.0,35,0.00,,---,0.00,269.00,VWS V14.01,2013-03-12 22:00:00,
2013-03-12 15:05:00,59.6,30.5,30.15,ENE,67,2.0,6.0,33,0.00,,---,0.00,357.00,VWS V14.01,2013-03-12 22:05:00,
2013-03-12 15:10:00,59.8,30.7,30.15,ENE,76,3.0,6.0,33,0.00,,---,0.00,397.00,VWS V14.01,2013-03-12 22:10:00,
2013-03-12 15:15:00,60.4,29.6,30.15,NNE,17,2.0,6.0,31,0.00,,---,0.00,394.00,VWS V14.01,2013-03-12 22:15:00,
2013-03-12 15:20:00,60.9,30.1,30.15,ENE,63,0.0,6.0,31,0.00,,---,0.00,454.00,VWS V14.01,2013-03-12 22:20:00,
2013-03-12 15:25:00,61.2,28.7,30.15,SE,141,0.0,6.0,29,0.00,,---,0.00,341.00,VWS V14.01,2013-03-12 22:25:00,
2013-03-12 15:30:00,61.4,28.9,30.14,East,100,0.0,6.0,29,0.00,,---,0.00,343.00,VWS V14.01,2013-03-12 22:30:00,
2013-03-12 15:35:00,61.6,28.2,30.15,ESE,103,8.0,8.0,28,0.00,,---,0.00,380.00,VWS V14.01,2013-03-12 22:35:00,
2013-03-12 15:40:00,61.9,24.7,30.15,SE,132,3.0,9.0,24,0.00,,---,0.00,294.00,VWS V14.01,2013-03-12 22:40:00,
2013-03-12 15:45:00,61.8,25.6,30.14,NE,53,5.0,9.0,25,0.00,,---,0.00,241.00,VWS V14.01,2013-03-12 22:45:00,
2013-03-12 15:50:00,61.6,24.5,30.14,ENE,76,3.0,12.0,24,0.00,,---,0.00,248.00,VWS V14.01,2013-03-12 22:50:00,
2013-03-12 15:55:00,61.3,23.2,30.14,ENE,65,9.0,12.0,23,0.00,,---,0.00,343.00,VWS V14.01,2013-03-12 22:55:00,
2013-03-12 16:00:00,61.5,24.4,30.14,SE,130,2.0,12.0,24,0.00,,---,0.00,559.00,VWS V14.01,2013-03-12 23:00:00,
2013-03-12 16:05:00,62.5,25.2,30.14,ESE,103,3.0,7.0,24,0.00,,---,0.00,594.00,VWS V14.01,2013-03-12 23:05:00,
2013-03-12 16:10:00,63.6,25.1,30.14,SSE,153,3.0,7.0,23,0.00,,---,0.00,332.00,VWS V14.01,2013-03-12 23:10:00,
2013-03-12 16:15:00,63.9,26.4,30.14,ENE,76,3.0,7.0,24,0.00,,---,0.00,306.00,VWS V14.01,2013-03-12 23:15:00,
2013-03-12 16:20:00,63.6,21.8,30.14,NE,51,9.0,12.0,20,0.00,,---,0.00,432.00,VWS V14.01,2013-03-12 23:20:00,
2013-03-12 16:25:00,63.4,25.0,30.14,ESE,107,1.0,13.0,23,0.00,,---,0.00,415.00,VWS V14.01,2013-03-12 23:25:00,
2013-03-12 16:30:00,63.6,24.1,30.14,ESE,106,3.0,13.0,22,0.00,,---,0.00,439.00,VWS V14.01,2013-03-12 23:30:00,
2013-03-12 16:35:00,63.8,22.0,30.14,ESE,120,3.0,11.0,20,0.00,,---,0.00,464.00,VWS V14.01,2013-03-12 23:35:00,
2013-03-12 16:40:00,64.4,22.5,30.14,ENE,57,2.0,11.0,20,0.00,,---,0.00,294.00,VWS V14.01,2013-03-12 23:40:00,
2013-03-12 16:45:00,64.2,21.1,30.14,NE,47,11.0,14.0,19,0.00,,---,0.00,183.00,VWS V14.01,2013-03-12 23:45:00,
2013-03-12 16:50:00,63.1,18.9,30.14,NE,49,6.0,14.0,18,0.00,,---,0.00,181.00,VWS V14.01,2013-03-12 23:50:00,
2013-03-12 16:55:00,62.3,21.9,30.14,ENE,71,9.0,14.0,21,0.00,,---,0.00,320.00,VWS V14.01,2013-03-12 23:55:00,
2013-03-12 17:00:00,62.2,20.7,30.14,ENE,62,4.0,14.0,20,0.00,,---,0.00,330.00,VWS V14.01,2013-03-13 00:00:00,
2013-03-12 17:05:00,62.3,20.8,30.13,NE,52,9.0,12.0,20,0.00,,---,0.00,339.00,VWS V14.01,2013-03-13 00:05:00,
2013-03-12 17:10:00,62.5,22.1,30.13,NE,51,9.0,14.0,21,0.00,,---,0.00,144.00,VWS V14.01,2013-03-13 00:10:00,
2013-03-12 17:15:00,62.0,22.8,30.13,ENE,74,4.0,14.0,22,0.00,,---,0.00,149.00,VWS V14.01,2013-03-13 00:15:00,
2013-03-12 17:20:00,61.6,23.5,30.13,ENE,77,9.0,14.0,23,0.00,,---,0.00,239.00,VWS V14.01,2013-03-13 00:20:00,
2013-03-12 17:25:00,61.6,24.5,30.13,NE,55,6.0,14.0,24,0.00,,---,0.00,223.00,VWS V14.01,2013-03-13 00:25:00,
2013-03-12 17:30:00,61.7,24.6,30.13,East,92,6.0,14.0,24,0.00,,---,0.00,123.00,VWS V14.01,2013-03-13 00:30:00,
2013-03-12 17:35:00,61.2,24.1,30.14,ENE,58,2.0,8.0,24,0.00,,---,0.00,111.00,VWS V14.01,2013-03-13 00:35:00,
2013-03-12 17:40:00,60.8,24.8,30.13,East,98,6.0,8.0,25,0.00,,---,0.00,93.00,VWS V14.01,2013-03-13 00:40:00,
2013-03-12 17:45:00,60.3,24.4,30.13,East,82,3.0,8.0,25,0.00,,---,0.00,90.00,VWS V14.01,2013-03-13 00:45:00,
2013-03-12 17:50:00,59.9,25.0,30.14,East,82,3.0,8.0,26,0.00,,---,0.00,95.00,VWS V14.01,2013-03-13 00:50:00,
2013-03-12 17:55:00,59.8,24.9,30.13,NE,44,2.0,8.0,26,0.00,,---,0.00,197.00,VWS V14.01,2013-03-13 00:55:00,
2013-03-12 18:00:00,60.1,26.0,30.13,East,101,5.0,8.0,27,0.00,,---,0.00,148.00,VWS V14.01,2013-03-13 01:00:00,
2013-03-12 18:05:00,60.5,26.4,30.13,NE,50,5.0,7.0,27,0.00,,---,0.00,151.00,VWS V14.01,2013-03-13 01:05:00,
2013-03-12 18:10:00,60.7,22.7,30.13,ENE,78,5.0,10.0,23,0.00,,---,0.00,141.00,VWS V14.01,2013-03-13 01:10:00,
2013-03-12 18:15:00,60.5,22.5,30.13,ENE,71,5.0,10.0,23,0.00,,---,0.00,107.00,VWS V14.01,2013-03-13 01:15:00,
2013-03-12 18:20:00,60.4,23.5,30.13,SSE,153,2.0,10.0,24,0.00,,---,0.00,93.00,VWS V14.01,2013-03-13 01:20:00,
2013-03-12 18:25:00,60.2,24.3,30.13,NNE,28,4.0,10.0,25,0.00,,---,0.00,63.00,VWS V14.01,2013-03-13 01:25:00,
2013-03-12 18:30:00,59.9,24.0,30.14,ENE,63,2.0,10.0,25,0.00,,---,0.00,54.00,VWS V14.01,2013-03-13 01:30:00,
2013-03-12 18:35:00,59.6,23.8,30.14,East,82,3.0,6.0,25,0.00,,---,0.00,53.00,VWS V14.01,2013-03-13 01:35:00,
2013-03-12 18:40:00,59.3,24.4,30.14,ENE,66,3.0,6.0,26,0.00,,---,0.00,49.00,VWS V14.01,2013-03-13 01:40:00,
2013-03-12 18:45:00,58.9,25.0,30.14,East,90,1.0,6.0,27,0.00,,---,0.00,28.00,VWS V14.01,2013-03-13 01:45:00,
2013-03-12 18:50:00,58.5,24.7,30.14,ESE,102,7.0,7.0,27,0.00,,---,0.00,23.00,VWS V14.01,2013-03-13 01:50:00,
2013-03-12 18:55:00,57.9,24.1,30.14,NE,56,3.0,7.0,27,0.00,,---,0.00,16.00,VWS V14.01,2013-03-13 01:55:00,
2013-03-12 19:00:00,57.3,24.5,30.13,NE,37,4.0,7.0,28,0.00,,---,0.00,7.00,VWS V14.01,2013-03-13 02:00:00,
2013-03-12 19:05:00,56.8,24.9,30.13,ENE,57,5.0,8.0,29,0.00,,---,0.00,0.00,VWS V14.01,2013-03-13 02:05:00,
2013-03-12 19:10:00,56.3,23.6,30.14,NE,42,6.0,10.0,28,0.00,,---,0.00,0.00,VWS V14.01,2013-03-13 02:10:00,
2013-03-12 19:15:00,56.0,23.4,30.14,ENE,68,5.0,10.0,28,0.00,,---,0.00,0.00,VWS V14.01,2013-03-13 02:15:00,
2013-03-12 19:20:00,55.8,24.0,30.14,NE,42,8.0,10.0,29,0.00,,---,0.00,0.00,VWS V14.01,2013-03-13 02:20:00,
2013-03-12 19:25:00,55.7,23.1,30.14,NE,56,6.0,10.0,28,0.00,,---,0.00,0.00,VWS V14.01,2013-03-13 02:25:00,
2013-03-12 19:30:00,55.6,23.9,30.14,NNE,31,6.0,13.0,29,0.00,,---,0.00,0.00,VWS V14.01,2013-03-13 02:30:00,
2013-03-12 19:35:00,55.4,23.7,30.14,ENE,59,10.0,11.0,29,0.00,,---,0.00,0.00,VWS V14.01,2013-03-13 02:35:00,
2013-03-12 19:40:00,55.4,24.5,30.14,ENE,61,5.0,11.0,30,0.00,,---,0.00,0.00,VWS V14.01,2013-03-13 02:40:00,
2013-03-12 19:45:00,55.3,24.4,30.15,NNE,25,5.0,11.0,30,0.00,,---,0.00,0.00,VWS V14.01,2013-03-13 02:45:00,
2013-03-12 19:50:00,55.3,24.4,30.15,NE,51,5.0,11.0,30,0.00,,---,0.00,0.00,VWS V14.01,2013-03-13 02:50:00,
2013-03-12 19:55:00,55.2,24.3,30.15,NE,53,7.0,11.0,30,0.00,,---,0.00,0.00,VWS V14.01,2013-03-13 02:55:00,
2013-03-12 20:00:00,55.1,23.4,30.15,NNE,14,5.0,11.0,29,0.00,,---,0.00,0.00,VWS V14.01,2013-03-13 03:00:00,
2013-03-12 20:05:00,55.0,24.2,30.16,NE,49,5.0,11.0,30,0.00,,---,0.00,0.00,VWS V14.01,2013-03-13 03:05:00,
2013-03-12 20:10:00,55.0,24.2,30.16,ENE,62,4.0,11.0,30,0.00,,---,0.00,0.00,VWS V14.01,2013-03-13 03:10:00,
2013-03-12 20:15:00,54.8,24.8,30.16,East,95,3.0,11.0,31,0.00,,---,0.00,0.00,VWS V14.01,2013-03-13 03:15:00,
2013-03-12 20:19:00,54.7,24.7,30.16,SE,139,3.0,11.0,31,0.00,,---,0.00,0.00,VWS V14.01,2013-03-13 03:19:00,
2013-03-12 20:24:00,54.6,24.6,30.16,NNW,334,2.0,11.0,31,0.00,,---,0.00,0.00,VWS V14.01,2013-03-13 03:24:00,
2013-03-12 20:30:00,54.5,24.5,30.16,ESE,117,0.0,11.0,31,0.00,,---,0.00,0.00,VWS V14.01,2013-03-13 03:30:00,
2013-03-12 20:35:00,54.4,25.9,30.16,NE,54,1.0,3.0,33,0.00,,---,0.00,0.00,VWS V14.01,2013-03-13 03:35:00,
2013-03-12 20:39:00,53.9,25.5,30.16,SSE,155,0.0,3.0,33,0.00,,---,0.00,0.00,VWS V14.01,2013-03-13 03:39:00,
2013-03-12 20:44:00,53.3,25.7,30.16,South,180,1.0,3.0,34,0.00,,---,0.00,0.00,VWS V14.01,2013-03-13 03:44:00,
2013-03-12 20:49:00,52.9,24.6,30.15,SSW,192,0.0,3.0,33,0.00,,---,0.00,0.00,VWS V14.01,2013-03-13 03:49:00,
2013-03-12 20:54:00,52.4,26.2,30.15,WNW,292,1.0,3.0,36,0.00,,---,0.00,0.00,VWS V14.01,2013-03-13 03:54:00,
2013-03-12 21:00:00,51.8,25.7,30.15,West,278,3.0,4.0,36,0.00,,---,0.00,0.00,VWS V14.01,2013-03-13 04:00:00,
2013-03-12 21:05:00,51.5,26.8,30.15,NW,304,1.0,4.0,38,0.00,,---,0.00,0.00,VWS V14.01,2013-03-13 04:05:00,
2013-03-12 21:10:00,50.8,26.1,30.16,WSW,257,4.0,4.0,38,0.00,,---,0.00,0.00,VWS V14.01,2013-03-13 04:10:00,
2013-03-12 21:15:00,50.3,23.7,30.16,NNE,14,1.0,4.0,35,0.00,,---,0.00,0.00,VWS V14.01,2013-03-13 04:15:00,
2013-03-12 21:20:00,50.1,24.9,30.16,NNW,327,1.0,4.0,37,0.00,,---,0.00,0.00,VWS V14.01,2013-03-13 04:20:00,
2013-03-12 21:25:00,49.5,25.6,30.16,NW,323,1.0,4.0,39,0.00,,---,0.00,0.00,VWS V14.01,2013-03-13 04:25:00,
2013-03-12 21:30:00,49.0,25.1,30.16,WSW,246,0.0,4.0,39,0.00,,---,0.00,0.00,VWS V14.01,2013-03-13 04:30:00,
2013-03-12 21:35:00,48.7,23.6,30.16,ESE,113,1.0,1.0,37,0.00,,---,0.00,0.00,VWS V14.01,2013-03-13 04:35:00,
2013-03-12 21:40:00,48.8,24.3,30.16,NNE,25,1.0,4.0,38,0.00,,---,0.00,0.00,VWS V14.01,2013-03-13 04:40:00,
2013-03-12 21:45:00,49.1,23.3,30.15,North,10,0.0,4.0,36,0.00,,---,0.00,0.00,VWS V14.01,2013-03-13 04:45:00,
2013-03-12 21:50:00,49.6,23.8,30.16,ENE,57,0.0,5.0,36,0.00,,---,0.00,0.00,VWS V14.01,2013-03-13 04:50:00,
2013-03-12 21:55:00,50.0,23.4,30.16,ENE,64,0.0,7.0,35,0.00,,---,0.00,0.00,VWS V14.01,2013-03-13 04:55:00,
2013-03-12 22:00:00,50.3,25.0,30.17,West,272,1.0,7.0,37,0.00,,---,0.00,0.00,VWS V14.01,2013-03-13 05:00:00,
2013-03-12 22:05:00,50.1,24.2,30.17,East,84,0.0,2.0,36,0.00,,---,0.00,0.00,VWS V14.01,2013-03-13 05:05:00,
2013-03-12 22:10:00,49.9,24.0,30.17,SW,220,2.0,3.0,36,0.00,,---,0.00,0.00,VWS V14.01,2013-03-13 05:10:00,
2013-03-12 22:15:00,50.0,24.8,30.17,SSW,203,0.0,3.0,37,0.00,,---,0.00,0.00,VWS V14.01,2013-03-13 05:15:00,
2013-03-12 22:20:00,50.1,26.1,30.17,SSE,160,0.0,3.0,39,0.00,,---,0.00,0.00,VWS V14.01,2013-03-13 05:20:00,
2013-03-12 22:25:00,49.7,27.0,30.17,West,279,3.0,3.0,41,0.00,,---,0.00,0.00,VWS V14.01,2013-03-13 05:25:00,
2013-03-12 22:30:00,48.9,27.4,30.17,West,264,0.0,3.0,43,0.00,,---,0.00,0.00,VWS V14.01,2013-03-13 05:30:00,
2013-03-12 22:35:00,48.3,27.4,30.16,West,264,0.0,2.0,44,0.00,,---,0.00,0.00,VWS V14.01,2013-03-13 05:35:00,
2013-03-12 22:40:00,47.9,28.1,30.16,WNW,298,2.0,3.0,46,0.00,,---,0.00,0.00,VWS V14.01,2013-03-13 05:40:00,
2013-03-12 22:45:00,47.6,28.4,30.16,WNW,299,2.0,3.0,47,0.00,,---,0.00,0.00,VWS V14.01,2013-03-13 05:45:00,
2013-03-12 22:50:00,47.2,28.0,30.17,WNW,299,0.0,3.0,47,0.00,,---,0.00,0.00,VWS V14.01,2013-03-13 05:50:00,
2013-03-12 22:55:00,46.9,26.7,30.16,WSW,257,0.0,3.0,45,0.00,,---,0.00,0.00,VWS V14.01,2013-03-13 05:55:00,
2013-03-12 23:00:00,46.8,27.6,30.16,WSW,248,0.0,3.0,47,0.00,,---,0.00,0.00,VWS V14.01,2013-03-13 06:00:00,
2013-03-12 23:05:00,46.6,28.0,30.16,West,276,1.0,4.0,48,0.00,,---,0.00,0.00,VWS V14.01,2013-03-13 06:05:00,
2013-03-12 23:10:00,46.7,28.6,30.16,ESE,109,0.0,4.0,49,0.00,,---,0.00,0.00,VWS V14.01,2013-03-13 06:10:00,
2013-03-12 23:15:00,46.7,28.6,30.16,North,355,3.0,4.0,49,0.00,,---,0.00,0.00,VWS V14.01,2013-03-13 06:15:00,
2013-03-12 23:20:00,46.9,26.1,30.16,North,5,5.0,8.0,44,0.00,,---,0.00,0.00,VWS V14.01,2013-03-13 06:20:00,
2013-03-12 23:25:00,47.7,26.3,30.15,NE,48,7.0,9.0,43,0.00,,---,0.00,0.00,VWS V14.01,2013-03-13 06:25:00,
2013-03-12 23:30:00,48.5,26.5,30.16,NE,55,5.0,9.0,42,0.00,,---,0.00,0.00,VWS V14.01,2013-03-13 06:30:00,
2013-03-12 23:35:00,48.8,26.7,30.15,NE,42,4.0,7.0,42,0.00,,---,0.00,0.00,VWS V14.01,2013-03-13 06:35:00,
2013-03-12 23:40:00,49.0,26.9,30.15,North,5,8.0,12.0,42,0.00,,---,0.00,0.00,VWS V14.01,2013-03-13 06:40:00,
2013-03-12 23:45:00,49.0,27.5,30.15,NNE,14,8.0,12.0,43,0.00,,---,0.00,0.00,VWS V14.01,2013-03-13 06:45:00,
2013-03-12 23:50:00,48.9,26.8,30.15,NE,40,7.0,12.0,42,0.00,,---,0.00,0.00,VWS V14.01,2013-03-13 06:50:00,
2013-03-12 23:55:00,48.9,26.8,30.16,North,360,6.0,12.0,42,0.00,,---,0.00,0.00,VWS V14.01,2013-03-13 06:55:00,